User: anonymous   Login
Location: Unspecified
(0.0000°N, 0.0000°E)
Time: 09:23:34
(UTC+00:00)
Language:

Kopernikus - Orbit

View from above orbital plane
View from above orbital plane
View from above satellite
View from above satellite

Ground track
Ground track

The orbit data is extracted from the following two-line orbital elements,

1 20041U 89041B   18014.14915101 +.00000089 +00000-0 +00000-0 0  9992
2 20041 014.8805 013.1952 0018357 245.2648 114.5668 01.00660728093532
Epoch (UTC): 14 January 2018 03:34:46
Eccentricity: 0.0018357
inclination: 14.8805°
perigee height: 35600 km
apogee height: 35755 km
right ascension of ascending node: 13.1952°
argument of perigee: 245.2648°
revolutions per day: 1.00660728
mean anomaly at epoch: 114.5668°
orbit number at epoch: 9353

The dashed part of the orbit path shows where the satellite is in the earth's shadow,  

DLR